Regional Weather Roundup
Issued by NWS Wilmington, NC

Home | Current Version | Previous Version | Text Only | Print | Product List | Glossary On
Versions: 1 2 3 4 5 6 7 8 9 10 11 12 13 14 15 16 17 18 19 20 21 22 23 24 25 26 27 28 29 30 31 32 33 34 35 36 37 38 39 40 41 42 43 44 45 46 47 48 49 50
000
ASUS42 KILM 220513
RWRILM
RWRILM
REGIONAL HOURLY WEATHER ROUNDUP
NATIONAL WEATHER SERVICE WILMINGTON NC
1200 AM EST WED FEB 22 2017

NOTE: "FAIR" INDICATES FEW OR NO CLOUDS BELOW 12,000 FEET WITH NO
SIGNIFICANT WEATHER AND/OR OBSTRUCTIONS TO VISIBILITY.

...............WFO WILMINGTON COUNTY WARNING AREA...............

......COASTAL NC AND SC COUNTIES......

CITY           SKY/WX    TMP DP  RH WIND       PRES   REMARKS
WILMINGTON     CLOUDY    51  50  96 NE5       30.09F
N MYRTLE BEACH CLOUDY    60  55  83 E6        30.06F
MYRTLE BEACH   NOT AVBL

......INLAND NC AND SC COUNTIES.......

CITY           SKY/WX    TMP DP  RH WIND       PRES   REMARKS
LUMBERTON      LGT RAIN  56  52  86 E6        30.07F
ELIZABETHTOWN  MOCLDY    55  52  87 E3        30.09F
WHITEVILLE     MOCLDY    57  53  86 E5        30.08F
FLORENCE       CLOUDY    58  53  84 E7        30.06F
DARLINGTON     MOCLDY    57  50  77 E5        30.07F
KINGSTREE      FAIR      55  52  88 E5        30.05F
HARTSVILLE     MOCLDY    57  50  77 E6        30.05F
BENNETTSVILLE  NOT AVBL
CONWAY         FAIR      52  50  93 CALM      30.07F
GEORGETOWN     FAIR      52  52 100 CALM      30.06F
MARION         FAIR      55  50  82 E5        30.07F

....................REST OF NORTH CAROLINA......................

.........EASTERN NC.........

CITY           SKY/WX    TMP DP  RH WIND       PRES   REMARKS
CAPE HATTERAS  MOCLDY    61  50  67 SE6       30.13F
JACKSONVILLE   CLOUDY    49  48  97 NE3       30.11F
MOREHEAD CITY  CLOUDY    53  51  93 E6        30.11F
KENANSVILLE    NOT AVBL
NEW BERN       CLOUDY    49  49 100 CALM      30.13F
ELIZABETH CITY PTCLDY    47  45  93 E3        30.14F

.........CENTRAL NC.........

CITY           SKY/WX    TMP DP  RH WIND       PRES   REMARKS
RALEIGH DURHAM MOCLDY    55  45  68 SE9       30.09F
ROCKY MOUNT    PTCLDY    48  46  93 CALM      30.11F
ROANOKE RAPIDS NOT AVBL
FAYETTEVILLE   PTCLDY    55  48  77 E5        30.08F
HOFFMAN        MOCLDY    51  46  82 CALM      30.07F

.........WESTERN NC.........

CITY           SKY/WX    TMP DP  RH WIND       PRES   REMARKS
CHARLOTTE      LGT RAIN  55  48  77 E6        30.07F
GREENSBORO     CLOUDY    57  38  48 SE7       30.07F
HICKORY        NOT AVBL
BOONE          NOT AVBL
ASHEVILLE      NOT AVBL

.....................REST OF SOUTH CAROLINA.....................

.........EASTERN SC.........

CITY           SKY/WX    TMP DP  RH WIND       PRES   REMARKS
CHARLESTON     PTCLDY    59  56  89 E8        30.03F
BEAUFORT MCAS  PTCLDY    64  61  90 E5        29.99F
HILTON HEAD    CLOUDY    63  61  94 VRB7      29.99F

.........CENTRAL SC.........

CITY           SKY/WX    TMP DP  RH WIND       PRES   REMARKS
COLUMBIA       MOCLDY    61  54  77 E9        30.02F
ORANGEBURG     PTCLDY    58  55  90 CALM      30.03F
SUMTER SHAW    MOCLDY    58  52  81 E5        30.02F

.........WESTERN SC.........

CITY           SKY/WX    TMP DP  RH WIND       PRES   REMARKS
GREENVILLE     NOT AVBL
ROCK HILL      LGT RAIN  54  51  90 CALM      30.06F
ANDERSON       CLOUDY    59  54  83 E7        30.01F
CLEMSON        NOT AVBL
GREENWOOD      CLOUDY    60  52  74 E5        30.03F


...................COASTAL AND OFFSHORE REPORTS..................

................LOCAL PIERS AND NC RESERVE................


STATION/POSITION TIME  SKY/WX   TEMP    WIND        PRES    VSBY
                                AIR SEA DIR/SP/G
                 (UTC)          (F)     (DEG/KT/KT) (MB)    (MI)
JOHNY MRCER PIER 0448            57 59   30/  9/  9 1017.7F
NC RESRV MASNBRO 0345            56      70/  4     1019.0
OCEAN CREST PIER NOT AVBL
SPRINGMAID  PIER 0448                               1017.4F


................COASTAL AND OFFSHORE BUOYS................


STATION/POSITION TIME  SKY/WX   TEMP    WIND        PRES    VSBY
                                AIR SEA DIR/SP/G
                 (UTC)          (F)     (DEG/KT/KT) (MB)    (MI)
DIMNDSHOAL 41025 0450            63 74  120/  6/  8 1020.6F
WVE H/P(F/S)=  4/10 SWL H/P/D(F/S/D)=  3/ 40/10

CAPE LOOKOUT     0500            62     110/  7/  7 1019.2F
ONSLOW BAY 41036 NOT AVBL
ONSLOW BAY 41064 NOT AVBL
ONSLOW BAY 41159 0443               69                N/A
WVE H/P(F/S)=  4/ 7

MASNBO INL 41110 0459               56                N/A
WVE H/P(F/S)=  3/ 4

WILM HARBR 41108 0447               57                N/A
WVE H/P(F/S)=  2/ 4

27SE WRITB 41037 0408            66 65  140/ 12/ 16 1018.3F
FRYING PAN 41013 0500               68  120/ 14/ 17 1017.8
SUNST NRSH 41024 0408            58 56   70/  8/ 10 1018.4F
CAPRS NRSH 41029 0408            61 59   90/  8/ 10 1017.1F
EDISTO     41004 0350            70 69  130/ 14/ 17 1016.9
WVE H/P(F/S)=  4/ 5



..........OFFSHORE BUOYS BEYOND 100 NM OFFSHORE...........
.....IN A TRIANGLE---HAT TO BERMUDA TO BAHAMAS TO HAT.....


STATION/POSITION TIME  SKY/WX   TEMP    WIND        PRES    VSBY
                                AIR SEA DIR/SP/G
                 (UTC)          (F)     (DEG/KT/KT) (MB)    (MI)
150E HAT   41001 NOT AVBL
W BERMUDA  41048 0450            61 68   40/ 12/ 17 1018.3F
WVE H/P(F/S)=  9/10 SWL H/P/D(F/S/D)=  8/ 20/10

ATLANTIC S 41049 0450            66 72  350/ 19/ 25 1012.2F
WVE H/P(F/S)= 10/ 9 SWL H/P/D(F/S/D)=  5/150/17

E BAHAMAS  41046 0500            75 78   50/ 12/ 16 1013.1
NE BAHAMAS 41047 0500            67 74   60/ 16/ 19 1016.0
120E CANVRL41010 NOT AVBL

END



USA.gov is the U.S. government's official web portal to all federal, state and local government web resources and services.